TimeEDT,TemperatureF,Dew PointF,Humidity,Sea Level PressureIn,VisibilityMPH,Wind Direction,Wind SpeedMPH,Gust SpeedMPH,PrecipitationIn,Events,Conditions,WindDirDegrees,DateUTC
12:54 AM,35.1,28.9,78,30.40,10.0,Calm,Calm,-,N/A,,Clear,0,2014-04-17 04:54:00
1:54 AM,33.1,28.9,85,30.41,10.0,Calm,Calm,-,N/A,,Clear,0,2014-04-17 05:54:00
2:54 AM,32.0,28.0,85,30.42,10.0,Calm,Calm,-,N/A,,Clear,0,2014-04-17 06:54:00
3:54 AM,30.9,28.0,89,30.43,10.0,Calm,Calm,-,N/A,,Clear,0,2014-04-17 07:54:00
4:54 AM,30.0,27.0,88,30.43,10.0,SSE,3.5,-,N/A,,Clear,160,2014-04-17 08:54:00
5:54 AM,30.0,27.0,88,30.44,10.0,Calm,Calm,-,N/A,,Clear,0,2014-04-17 09:54:00
6:54 AM,30.0,27.0,88,30.46,10.0,Calm,Calm,-,N/A,,Clear,0,2014-04-17 10:54:00
7:54 AM,30.9,28.0,89,30.48,10.0,Calm,Calm,-,N/A,,Clear,0,2014-04-17 11:54:00
8:54 AM,36.0,30.0,79,30.49,10.0,SSE,3.5,-,N/A,,Clear,160,2014-04-17 12:54:00
9:54 AM,41.0,28.0,60,30.49,10.0,SW,3.5,-,N/A,,Clear,220,2014-04-17 13:54:00
10:54 AM,46.0,28.0,50,30.49,10.0,South,9.2,-,N/A,,Clear,180,2014-04-17 14:54:00
11:54 AM,48.2,-9999,N/A,30.47,10.0,South,11.5,-,N/A,,Clear,190,2014-04-17 15:54:00
12:54 PM,51.1,26.1,38,30.47,10.0,South,11.5,-,N/A,,Clear,180,2014-04-17 16:54:00
1:54 PM,54.0,28.0,37,30.45,10.0,North,-9999.0,-,N/A,,Clear,0,2014-04-17 17:54:00
2:54 PM,55.9,21.9,27,30.44,10.0,SSE,11.5,18.4,N/A,,Clear,150,2014-04-17 18:54:00
3:54 PM,59.0,25.0,27,30.40,10.0,SE,10.4,-,N/A,,Clear,140,2014-04-17 19:54:00
4:54 PM,57.9,21.9,25,30.38,10.0,SE,9.2,-,N/A,,Clear,140,2014-04-17 20:54:00
5:54 PM,57.9,21.0,24,30.38,10.0,SSE,9.2,-,N/A,,Clear,150,2014-04-17 21:54:00
6:54 PM,57.0,21.9,26,30.39,10.0,SSE,5.8,-,N/A,,Clear,150,2014-04-17 22:54:00
7:54 PM,54.0,24.1,31,30.39,10.0,SE,6.9,-,N/A,,Clear,130,2014-04-17 23:54:00
8:54 PM,50.0,27.0,41,30.42,10.0,SSE,4.6,-,N/A,,Clear,160,2014-04-18 00:54:00
9:54 PM,45.0,30.0,56,30.43,10.0,SW,4.6,-,N/A,,Clear,220,2014-04-18 01:54:00
10:54 PM,45.0,30.0,56,30.42,10.0,Calm,Calm,-,N/A,,Clear,0,2014-04-18 02:54:00
11:54 PM,42.1,33.1,70,30.41,10.0,Calm,Calm,-,N/A,,Clear,0,2014-04-18 03:54:00